Troy, MI

8:17 AM EST on November 19, 2017 (GMT -0500)
Troy

Weather History for KVLL - September, 2014

Change the Weather History Date:

Thursday, September 4, 2014

  Actual Average (KDET) Record (KDET)
Temperature  
Mean Temperature 76 °F -  
Max Temperature 88 °F 78 °F 91 °F (1953)
Min Temperature 65 °F 60 °F 47 °F (1974)
Cooling Degree Days 12    
Growing Degree Days 26 (Base 50)    
Moisture  
Dew Point 64 °F    
Average Humidity 68    
Maximum Humidity 85    
Minimum Humidity 44    
Precipitation  
Precipitation 0.00 in - - ()
Sea Level Pressure  
Sea Level Pressure 30.05 in    
Wind  
Wind Speed 6 mph (SSW)    
Max Wind Speed 15 mph    
Max Gust Speed 24 mph    
Visibility 10 miles    
Events      
Averages and records for this station are not official NWS values.
T = Trace of Precipitation, MM = Missing Value Source: NWS Daily Summary

Daily Weather History Graph

Daily Weather History Graph

Search for Another Location

Airport or City:

Trip Planner

Search our weather history database for the weather conditions in past years. The results will help you decide how hot, cold, wet, or windy it might be!

Date:

Astronomy

Sep. 04, 2014 Rise Set
Actual Time 7:00 AM EDT 8:01 PM EDT
Civil Twilight 6:32 AM EDT 8:30 PM EDT
Nautical Twilight 5:57 AM EDT 9:04 PM EDT
Astronomical Twilight 5:21 AM EDT 9:40 PM EDT
Moon 4:42 PM EDT (9/4) 1:46 AM EDT (9/4)
Length of Visible Light 13h 58m
Length of Day
13h 00m
Waxing Gibbous, 74% of the Moon is Illuminated
Sep 4
Waxing Gibbous
Sep 8
Full
Sep 15
Last Quarter
Sep 24
New
Oct 1
First Quarter

Hourly Weather History & Observations

Time (EDT) Temp. Heat Index Dew Point Humidity Pressure Visibility Wind Dir Wind Speed Gust Speed Precip Events Conditions
12:14 AM 71.6 °F - 63.5 °F 76% 30.07 in 10.0 mi South 4.6 mph - N/A   Clear
12:35 AM 71.4 °F - 64.2 °F 78% 30.07 in 10.0 mi South 3.5 mph - N/A   Clear
12:55 AM 71.4 °F - 64.4 °F 78% 30.07 in 10.0 mi South 3.5 mph - N/A   Scattered Clouds
1:14 AM 71.6 °F - 64.6 °F 78% 30.07 in 10.0 mi South 3.5 mph - N/A   Scattered Clouds
1:35 AM 71.2 °F - 64.8 °F 80% 30.08 in 10.0 mi SSW 3.5 mph - N/A   Mostly Cloudy
1:55 AM 71.1 °F - 64.8 °F 80% 30.08 in 10.0 mi SSW 4.6 mph - N/A   Mostly Cloudy
2:14 AM 70.9 °F - 64.6 °F 80% 30.08 in 10.0 mi SSW 4.6 mph - N/A   Scattered Clouds
2:35 AM 70.7 °F - 64.4 °F 80% 30.08 in 10.0 mi SSW 3.5 mph - N/A   Clear
2:55 AM 70.7 °F - 63.9 °F 79% 30.07 in 10.0 mi South 3.5 mph - N/A   Clear
3:15 AM 70.2 °F - 63.1 °F 78% 30.07 in 10.0 mi SSW 3.5 mph - N/A   Clear
3:35 AM 69.8 °F - 62.8 °F 78% 30.06 in 10.0 mi SSW 3.5 mph - N/A   Clear
3:55 AM 69.1 °F - 62.6 °F 80% 30.06 in 10.0 mi SSW 3.5 mph - N/A   Clear
4:15 AM 68.2 °F - 62.6 °F 82% 30.06 in 10.0 mi SW 3.5 mph - N/A   Clear
4:35 AM 68.0 °F - 62.1 °F 81% 30.06 in 10.0 mi SSW 4.6 mph - N/A   Clear
4:55 AM 67.5 °F - 61.7 °F 82% 30.06 in 10.0 mi SSW 4.6 mph - N/A   Clear
5:15 AM 67.3 °F - 61.7 °F 82% 30.06 in 10.0 mi SW 3.5 mph - N/A   Clear
5:35 AM 67.1 °F - 61.3 °F 82% 30.06 in 10.0 mi Calm Calm - N/A   Clear
5:54 AM 66.4 °F - 61.0 °F 83% 30.06 in 10.0 mi SSW 3.5 mph - N/A   Clear
6:15 AM 66.2 °F - 60.8 °F 83% 30.05 in 10.0 mi Calm Calm - N/A   Clear
6:35 AM 65.8 °F - 61.0 °F 84% 30.05 in 10.0 mi South 3.5 mph - N/A   Clear
6:55 AM 65.8 °F - 60.6 °F 83% 30.06 in 10.0 mi Calm Calm - N/A   Clear
7:15 AM 65.8 °F - 60.4 °F 83% 30.07 in 10.0 mi SSW 3.5 mph - N/A   Clear
7:35 AM 65.8 °F - 60.3 °F 82% 30.06 in 10.0 mi South 4.6 mph - N/A   Clear
7:55 AM 66.7 °F - 60.8 °F 81% 30.06 in 10.0 mi South 4.6 mph - N/A   Clear
8:15 AM 67.6 °F - 60.8 °F 79% 30.07 in 10.0 mi SSW 5.8 mph - N/A   Clear
8:35 AM 68.5 °F - 60.8 °F 76% 30.08 in 10.0 mi SW 4.6 mph - N/A   Clear
8:54 AM 70.0 °F - 61.3 °F 74% 30.08 in 10.0 mi SSW 6.9 mph - N/A   Clear
9:15 AM 71.4 °F - 61.9 °F 72% 30.07 in 10.0 mi South 6.9 mph - N/A   Clear
9:35 AM 72.7 °F - 62.1 °F 69% 30.07 in 10.0 mi South 8.1 mph - N/A   Clear
9:54 AM 74.5 °F - 62.1 °F 65% 30.07 in 10.0 mi SSW 10.4 mph 16.1 mph N/A   Clear
10:15 AM 76.1 °F - 62.1 °F 62% 30.07 in 10.0 mi SW 10.4 mph - N/A   Clear
10:35 AM 76.6 °F - 62.4 °F 61% 30.07 in 10.0 mi SSW 6.9 mph - N/A   Clear
10:54 AM 79.2 °F - 61.9 °F 55% 30.08 in 10.0 mi SSW 10.4 mph 18.4 mph N/A   Clear
11:15 AM 78.6 °F - 61.9 °F 56% 30.07 in 10.0 mi SW 10.4 mph 18.4 mph N/A   Clear
11:35 AM 81.1 °F 82.1 °F 62.2 °F 52% 30.06 in 10.0 mi South 9.2 mph 18.4 mph N/A   Clear
11:54 AM 82.4 °F 83.4 °F 62.6 °F 51% 30.06 in 10.0 mi SW 10.4 mph 18.4 mph N/A   Clear
12:15 PM 81.5 °F 82.5 °F 62.1 °F 52% 30.05 in 10.0 mi SW 13.8 mph 19.6 mph N/A   Clear
12:35 PM 82.2 °F 83.3 °F 62.8 °F 52% 30.04 in 10.0 mi SSW 12.7 mph 17.3 mph N/A   Clear
12:54 PM 83.1 °F 84.0 °F 62.6 °F 50% 30.04 in 10.0 mi SW 12.7 mph - N/A   Clear
1:15 PM 83.3 °F 84.3 °F 62.8 °F 50% 30.02 in 10.0 mi SSW 15.0 mph 20.7 mph N/A   Clear
1:35 PM 84.4 °F 85.4 °F 63.3 °F 49% 30.02 in 10.0 mi South 12.7 mph 16.1 mph N/A   Clear
1:55 PM 85.5 °F 86.6 °F 63.7 °F 48% 30.01 in 10.0 mi South 15.0 mph 20.7 mph N/A   Clear
2:15 PM 84.7 °F 85.9 °F 63.5 °F 49% 30.00 in 10.0 mi South 15.0 mph 21.9 mph N/A   Clear
2:35 PM 85.8 °F 86.8 °F 63.3 °F 47% 30.01 in 10.0 mi South 15.0 mph 20.7 mph N/A   Clear
2:55 PM 86.5 °F 87.3 °F 63.0 °F 45% 30.00 in 10.0 mi South 15.0 mph 24.2 mph N/A   Clear
3:15 PM 86.9 °F 88.1 °F 63.9 °F 46% 29.99 in 10.0 mi South 11.5 mph 19.6 mph N/A   Clear
3:34 PM 88.3 °F 89.5 °F 63.7 °F 44% 30.00 in 10.0 mi SSW 12.7 mph 19.6 mph N/A   Clear
3:55 PM 87.8 °F 89.1 °F 64.2 °F 45% 30.00 in 10.0 mi SSW 11.5 mph 17.3 mph N/A   Clear
4:15 PM 88.2 °F 89.6 °F 64.4 °F 45% 30.00 in 10.0 mi SW 12.7 mph 16.1 mph N/A   Clear
4:35 PM 86.9 °F 88.9 °F 65.5 °F 49% 30.02 in 10.0 mi SW 8.1 mph 11.5 mph N/A   Clear
4:55 PM 86.4 °F 88.4 °F 65.7 °F 50% 30.03 in 10.0 mi WSW 8.1 mph - N/A   Scattered Clouds
5:14 PM 86.2 °F 88.2 °F 65.5 °F 50% 30.04 in 10.0 mi West 6.9 mph - N/A   Mostly Cloudy
5:35 PM 86.0 °F 88.2 °F 66.2 °F 51% 30.05 in 10.0 mi West 3.5 mph - N/A   Overcast
5:55 PM 85.3 °F 87.6 °F 66.6 °F 53% 30.04 in 10.0 mi Calm Calm - N/A   Mostly Cloudy
6:14 PM 84.9 °F 87.4 °F 66.7 °F 54% 30.02 in 10.0 mi Calm Calm - N/A   Scattered Clouds
6:35 PM 84.6 °F 87.6 °F 67.8 °F 57% 30.03 in 10.0 mi NNW 4.6 mph - N/A   Mostly Cloudy
6:55 PM 80.8 °F 82.9 °F 66.4 °F 61% 30.05 in 10.0 mi WSW 10.4 mph - N/A   Overcast
7:14 PM 77.5 °F - 65.7 °F 67% 30.05 in 10.0 mi SW 12.7 mph - N/A   Mostly Cloudy
7:35 PM 76.5 °F - 65.5 °F 69% 30.02 in 10.0 mi SSW 3.5 mph - N/A   Clear
7:55 PM 76.1 °F - 65.3 °F 69% 30.01 in 10.0 mi SSW 10.4 mph - N/A   Clear
8:14 PM 75.2 °F - 66.2 °F 73% 30.00 in 10.0 mi SSW 5.8 mph - N/A   Clear
8:35 PM 74.5 °F - 66.6 °F 76% 30.01 in 10.0 mi SSW 6.9 mph - N/A   Clear
8:55 PM 74.8 °F - 67.3 °F 77% 30.02 in 10.0 mi SSW 6.9 mph - N/A   Clear
9:14 PM 74.3 °F - 67.3 °F 79% 30.02 in 10.0 mi SSW 6.9 mph - N/A   Clear
9:35 PM 74.5 °F - 67.5 °F 79% 30.02 in 10.0 mi SSW 6.9 mph - N/A   Clear
10:15 PM 74.3 °F - 68.2 °F 81% 30.04 in 10.0 mi SSW 5.8 mph - N/A   Clear
10:35 PM 74.3 °F - 68.5 °F 82% 30.05 in 10.0 mi SSW 5.8 mph - N/A   Clear
10:55 PM 73.8 °F - 68.5 °F 84% 30.07 in 10.0 mi SW 4.6 mph - N/A   Scattered Clouds
11:15 PM 73.9 °F - 69.1 °F 85% 30.08 in 10.0 mi SSW 6.9 mph - N/A   Mostly Cloudy
11:35 PM 73.8 °F - 69.1 °F 85% 30.07 in 10.0 mi SSW 4.6 mph - N/A   Mostly Cloudy
11:55 PM 73.9 °F - 68.9 °F 84% 30.07 in 10.0 mi SW 5.8 mph - N/A   Scattered Clouds